TimeCDT,TemperatureF,Dew PointF,Humidity,Sea Level PressureIn,VisibilityMPH,Wind Direction,Wind SpeedMPH,Gust SpeedMPH,PrecipitationIn,Events,Conditions,WindDirDegrees,DateUTC
12:52 AM,43.0,33.1,68,29.70,10.0,West,9.2,-,N/A,,Mostly Cloudy,280,2013-11-01 05:52:00
1:52 AM,42.1,33.1,70,29.72,10.0,WNW,12.7,-,N/A,,Overcast,290,2013-11-01 06:52:00
2:52 AM,46.9,35.1,63,29.73,10.0,NW,16.1,27.6,N/A,,Overcast,320,2013-11-01 07:52:00
3:50 AM,44.6,35.6,71,29.75,10.0,NW,19.6,34.5,N/A,,Overcast,320,2013-11-01 08:50:00
3:52 AM,45.0,36.0,71,29.76,10.0,NW,20.7,34.5,N/A,,Overcast,320,2013-11-01 08:52:00
4:22 AM,42.8,37.4,81,29.77,10.0,NW,13.8,21.9,0.00,Rain,Light Rain,310,2013-11-01 09:22:00
4:52 AM,43.0,37.9,82,29.80,10.0,NW,17.3,23.0,0.00,Rain,Light Rain,310,2013-11-01 09:52:00
5:52 AM,43.0,37.0,80,29.83,10.0,WNW,12.7,-,N/A,,Mostly Cloudy,300,2013-11-01 10:52:00
6:52 AM,42.1,37.9,85,29.87,10.0,WNW,12.7,20.7,N/A,,Overcast,300,2013-11-01 11:52:00
7:52 AM,41.0,37.0,86,29.89,10.0,WNW,12.7,-,N/A,,Partly Cloudy,300,2013-11-01 12:52:00
8:52 AM,41.0,36.0,82,29.91,10.0,WNW,12.7,-,N/A,,Overcast,290,2013-11-01 13:52:00
9:52 AM,45.0,36.0,71,29.93,10.0,NW,16.1,21.9,N/A,,Partly Cloudy,310,2013-11-01 14:52:00
10:52 AM,48.9,35.1,59,29.90,10.0,NW,28.8,41.4,N/A,,Clear,310,2013-11-01 15:52:00
11:52 AM,51.1,32.0,48,29.91,10.0,NW,20.7,39.1,N/A,,Clear,310,2013-11-01 16:52:00
12:52 PM,51.1,30.0,44,29.91,10.0,NW,20.7,32.2,N/A,,Mostly Cloudy,310,2013-11-01 17:52:00
1:52 PM,48.0,30.0,50,29.94,10.0,NW,26.5,40.3,0.00,Rain,Light Rain,310,2013-11-01 18:52:00
2:52 PM,50.0,28.9,44,29.94,10.0,NW,24.2,39.1,0.00,,Mostly Cloudy,320,2013-11-01 19:52:00
3:52 PM,48.0,30.0,50,29.99,10.0,NNW,23.0,35.7,N/A,,Overcast,330,2013-11-01 20:52:00
4:52 PM,46.9,30.0,52,30.02,10.0,NNW,21.9,31.1,N/A,,Mostly Cloudy,330,2013-11-01 21:52:00
5:52 PM,46.0,28.9,51,30.05,10.0,NNW,17.3,33.4,N/A,,Scattered Clouds,340,2013-11-01 22:52:00
7:52 PM,34.0,27.0,75,30.12,10.0,WNW,4.6,-,N/A,,Clear,290,2013-11-02 00:52:00
8:52 PM,34.0,27.0,75,30.14,10.0,West,5.8,-,N/A,,Clear,280,2013-11-02 01:52:00
9:52 PM,33.1,26.1,75,30.14,10.0,WNW,5.8,-,N/A,,Clear,290,2013-11-02 02:52:00
10:52 PM,33.1,26.1,75,30.14,10.0,WNW,6.9,-,N/A,,Clear,290,2013-11-02 03:52:00
11:52 PM,32.0,25.0,75,30.15,10.0,WNW,5.8,-,N/A,,Partly Cloudy,290,2013-11-02 04:52:00